This demonstration page uses our WeatherBlox Daily Observations layout. Learn more.

Left ArrowRight Arrow

34.74481, -87.66753

Hourly Observations for May 17, 2019

Temp ( °F °C ) Dew Point ( °F °C ) Humidity (%) Winds ( mph kmh ) Pressure ( in mb ) Visibility ( mi km ) Precip ( " mm )
12:53 am 00:53 Clear 67 19.4 65 18.3 93 93 S 3 6 29.93 1014 10 16 0.00 0.00
1:53 am 01:53 Clear 68 20 65 18.3 90 90 SSW 6 9 29.91 1013 10 16 0.00 0.00
2:53 am 02:53 Clear 68 20 62 16.7 81 81 W 6 9 29.93 1013 10 16 0.00 0.00
3:53 am 03:53 Clear 66 18.9 61 16.1 84 84 Calm 29.95 1014 10 16 0.00 0.00
4:53 am 04:53 Clear 64 17.8 61 16.1 90 90 Calm 29.95 1014 10 16 0.00 0.00
5:53 am 05:53 Sunny 64 17.8 62 16.7 93 93 SSE 3 6 29.96 1015 10 16 0.00 0.00
6:53 am 06:53 Sunny 69 20.6 65 18.3 87 87 Calm 29.98 1015 10 16 0.00 0.00
7:53 am 07:53 Sunny 73 22.8 65 18.3 76 76 Calm 30.00 1016 10 16 0.00 0.00
8:53 am 08:53 Sunny 80 26.7 65 18.3 60 60 W 6 9 30.00 1016 10 16 0.00 0.00
9:53 am 09:53 Sunny 84 28.9 65 18.3 53 53 W 7 11 30.00 1016 10 16 0.00 0.00
11:53 am 11:53 Sunny 86 30 64 17.8 48 48 WNW 7 11 30.01 1016 10 16 0.00 0.00
12:53 pm 12:53 Partly Cloudy 86 30 64 17.8 48 48 VRB 3 6 29.99 1016 10 16 0.00 0.00
1:53 pm 13:53 Partly Cloudy 88 31.1 63 17.2 43 43 VRB 3 6 29.98 1015 10 16 0.00 0.00
2:53 pm 14:53 Mostly Sunny 89 31.7 62 16.7 41 41 Calm 29.97 1015 10 16 0.00 0.00
3:53 pm 15:53 Sunny 88 31.1 60 15.6 39 39 SSW 6 9 29.95 1014 10 16 0.00 0.00
4:53 pm 16:53 Partly Cloudy 87 30.6 61 16.1 42 42 WSW 7 11 29.93 1014 10 16 0.00 0.00
5:53 pm 17:53 Sunny 87 30.6 62 16.7 43 43 WSW 6 9 29.93 1013 10 16 0.00 0.00
6:53 pm 18:53 Sunny 84 28.9 65 18.3 53 53 WSW 5 7 29.93 1014 10 16 0.00 0.00
7:53 pm 19:53 Clear 77 25 67 19.4 71 71 Calm 29.94 1014 10 16 0.00 0.00
8:53 pm 20:53 Clear 74 23.3 66 18.9 76 76 Calm 29.94 1014 10 16 0.00 0.00
9:53 pm 21:53 Clear 72 22.2 67 19.4 84 84 SSE 5 7 29.95 1014 10 16 0.00 0.00
10:53 pm 22:53 Clear 71 21.7 66 18.9 84 84 Calm 29.95 1014 10 16 0.00 0.00
11:53 pm 23:53 Clear 71 21.7 66 18.9 84 84 Calm 29.96 1014 10 16 0.00 0.00

Powered by AerisWeather